Location: Blue Sky Observatory
(43.1153°N, 70.9036°W)
Time: 12:48:43
(UTC-04:00)

Daily predictions for brighter satellites

Satellite Brightness Start Highest point End
(mag) Time Altitude Azimuth Time Altitude Azimuth Time Altitude Azimuth
Meteor 1-12 Rocket 4.4 20:32:23 10° N 20:38:27 85° ENE 20:44:26 10° S
Cosmos 1680 Rocket 4.3 20:38:22 10° SSE 20:42:55 31° E 20:47:29 10° NE
SL-27 R/B 4.3 20:42:13 10° SE 20:44:28 16° E 20:46:43 10° ENE
SPOT 5 4.3 20:44:34 10° ESE 20:47:37 19° ENE 20:50:43 10° NNE
Cosmos 1812 4.3 20:45:08 10° SSW 20:48:46 39° WNW 20:52:26 10° N
Cosmos 1709 Rocket 4.4 20:45:46 10° NNW 20:52:00 67° W 20:58:07 10° S
Cosmos 1743 2.9 20:49:13 10° N 20:53:03 54° E 20:56:52 10° SSE
Iridium 4 Rocket 4.2 20:49:45 10° N 20:54:36 58° W 20:59:53 10° SSW
Cosmos 1346 3.7 20:52:53 10° SSE 20:55:22 30° E 20:57:52 10° NNE
Envisat 3.2 20:51:37 10° S 20:56:41 74° WSW 21:01:47 10° NNW
Cosmos 405 4.5 20:55:27 10° NNE 20:58:22 23° ENE 21:00:54 12° ESE
Spot 1 4.4 20:54:58 10° S 20:59:33 71° WSW 21:03:53 10° NNW
Terra 4.1 21:00:54 10° ENE 21:01:44 10° ENE 21:02:35 10° NE
ASTEX 1 3.7 20:57:37 10° SSE 21:02:20 49° ENE 21:07:03 10° N
Aureole 3 Rocket 3.8 20:56:42 10° S 21:03:20 59° E 21:08:04 10° NNE
Tiangong 2 2.3 21:08:53 10° SSW 21:11:28 23° SSE 21:13:19 14° ESE
Cosmos 1437 Rocket 4.3 21:08:46 10° NNE 21:11:45 21° ENE 21:13:57 14° ESE
Aureole 1 Rocket 2.8 21:09:42 10° S 21:12:52 36° ESE 21:15:42 10° NE
Meteor 2-9 Rocket 4.4 21:07:34 10° N 21:12:55 54° ENE 21:17:54 12° SSE
Okean 1-7 Rocket 4.2 21:08:59 10° SSE 21:13:04 38° E 21:17:14 10° NNE
NOSS 2-2 (E) 3.6 21:10:04 10° SW 21:14:06 85° NW 21:18:52 10° NE
Cosmos 1238 Rocket 4.3 21:08:50 10° SSE 21:15:19 54° E 21:21:42 10° NNE
DNEPR-1 R/B 3.6 21:12:30 10° NNW 21:16:44 67° NE 21:20:18 16° SE
Meteor 2-4 Rocket 3.8 21:15:09 10° S 21:20:41 63° E 21:26:24 10° NNE
Cosmos 1666 2.6 21:19:56 10° N 21:23:42 85° E 21:26:55 14° S
ISS -2.9 21:20:57 10° SSW 21:23:47 27° SE 21:26:38 10° ENE
Meteor 2-13 Rocket 4.5 21:19:33 10° N 21:25:39 87° W 21:31:43 10° S
OAO 2 Rocket 4.1 21:23:52 10° SW 21:28:13 31° S 21:31:02 18° SE
Cosmos 923 Rocket 4.2 21:22:58 10° SSW 21:28:18 80° WNW 21:33:39 10° NNE
Cosmos 1833 Rocket 4.5 21:29:45 12° ESE 21:30:22 12° E 21:32:33 10° ENE
Cosmos 2184 Rocket 4.2 21:25:46 10° N 21:32:09 78° W 21:38:25 10° S
Cosmos 2074 Rocket 4.2 21:26:07 10° N 21:32:21 75° W 21:38:35 10° S
CZ-3A R/B 2.3 21:30:46 10° SSW 21:33:08 19° S 21:33:08 19° S
Cosmos 1610 Rocket 4.5 21:29:51 10° N 21:36:11 81° E 21:41:40 14° S
Lacrosse 5 rocket 4.4 21:36:08 10° NW 21:38:46 15° N 21:41:26 10° NNE
Cosmos 1606 Rocket 4.0 21:35:18 10° N 21:39:26 43° ENE 21:41:41 23° SE
USA 245 2.6 21:38:45 32° SE 21:39:37 47° ENE 21:42:00 10° N
Intercosmos 24 3.7 21:36:55 10° N 21:41:03 69° E 21:43:05 24° SSE
YAOGAN 11 4.0 21:40:59 20° SSE 21:43:55 82° ENE 21:48:15 10° NNW
Cosmos 1656 Rocket 4.5 21:39:52 10° NW 21:45:02 45° WSW 21:49:49 12° S
YAOGAN 6 4.1 21:42:25 10° SSW 21:45:34 31° W 21:48:44 10° NNW
ERS-1 Rocket 3.4 21:41:29 11° S 21:46:11 58° W 21:51:10 10° NNW
USA 267 4.4 21:42:09 10° ENE 21:46:36 19° ESE 21:46:45 19° SE
MetOp-A 4.3 21:45:09 15° S 21:49:35 75° WSW 21:54:58 10° NNW
Meteor 1-23 Rocket 4.1 21:44:18 10° S 21:49:52 85° E 21:55:30 10° N
Cosmos 1726 Rocket 3.9 21:46:14 10° N 21:50:26 47° ENE 21:52:23 27° SE
MOS 1-B Rocket 4.0 21:46:03 16° S 21:50:45 80° WSW 21:57:08 10° NNW
Cosmos 405 Rocket 4.4 21:49:16 10° SW 21:52:39 32° WNW 21:56:08 10° N
GENESIS II 4.4 21:49:13 10° NW 21:53:09 64° WSW 21:55:01 28° SSE
Cosmos 1515 4.1 21:53:03 31° SE 21:54:18 42° E 21:57:55 10° NNE
H-2A R/B 2.1 21:52:51 25° SE 21:55:38 59° ENE 22:00:35 10° N
Cosmos 1980 Rocket 4.3 21:53:11 10° N 21:56:41 16° NE 22:00:08 10° E
Cosmos 2058 Rocket 3.7 21:52:40 10° N 21:56:51 41° ENE 21:58:34 28° SE
Meteor 1-15 Rocket 4.2 21:52:01 10° N 21:57:40 89° E 22:01:26 22° S
Cosmos 2112 Rocket 4.5 21:55:59 10° SSW 22:01:09 62° WNW 22:06:20 10° NNE
Cosmos 962 Rocket 4.5 21:55:11 10° N 22:01:28 72° E 22:05:22 24° SSE
Cosmos 1025 Rocket 3.2 21:58:34 13° SSW 22:02:18 70° W 22:06:35 10° N
CENTAUR R/B 3.8 21:55:18 10° NW 22:02:50 47° WSW 22:09:18 16° S
DMSP B5D2-2 4.5 21:59:21 10° NNE 22:04:24 44° E 22:06:40 28° SSE
Cosmos 1441 Rocket 4.3 22:01:45 10° SSW 22:05:20 43° WNW 22:08:56 10° N
Cosmos 1624 Rocket 4.0 22:02:55 10° NNW 22:08:14 84° ENE 22:10:57 30° SSE
PSLV R/B 3.4 22:07:46 10° W 22:10:40 48° SSW 22:10:40 48° SSW
Cosmos 2154 Rocket 4.3 22:09:26 10° NNW 22:15:44 67° W 22:20:26 19° S
SL-08 RB Rocket 3.9 22:14:43 27° S 22:17:04 63° W 22:21:31 10° NNW
Nimbus 7 Rocket 4.4 22:11:00 10° NNE 22:17:06 90° W 22:22:26 14° SSW
ARGOS 3.6 22:13:33 20° S 22:17:13 57° W 22:22:34 10° NNW
SL-27 R/B 4.2 22:16:02 10° SW 22:19:23 34° WNW 22:22:46 10° N
SL-8 Rocket 4.1 22:13:48 10° N 22:20:01 62° E 22:23:02 31° SSE
Landsat 7 3.7 22:21:40 36° SSE 22:23:37 83° ENE 22:28:24 10° NNW
Cosmos 2366 rocket 4.3 22:18:01 10° N 22:24:00 49° ENE 22:26:33 31° SE
SPOT 5 3.6 22:23:04 22° SSW 22:25:26 40° W 22:29:33 10° NNW
H-2A R/B 2.3 22:24:49 40° SE 22:26:13 60° ENE 22:30:42 10° N
Cosmos 2278 3.7 22:20:35 10° NNW 22:26:19 73° ENE 22:28:45 35° SE
Cosmos 2056 Rocket 3.5 22:21:47 10° NNW 22:26:57 72° WSW 22:29:09 34° S
Cosmos 2082 Rocket 2.6 22:28:03 35° SE 22:29:36 43° ESE 22:34:56 10° NE
Cosmos 1626 Rocket 3.9 22:37:18 44° ESE 22:37:38 45° E 22:41:46 10° NNE
CZ-4B R/B 4.0 22:33:34 10° NNE 22:38:21 42° E 22:39:08 39° ESE
Terra 1.7 22:37:12 45° SSE 22:38:40 82° ENE 22:43:27 10° NNW
Cosmos 839 Rocket 4.3 22:34:38 10° NW 22:41:10 79° WSW 22:44:54 33° SSE
Cosmos 2369 3.7 22:39:09 10° NNW 22:44:55 82° WSW 22:46:58 42° SSE
Cosmos 967 Rocket 4.4 22:39:29 10° SSW 22:45:46 84° NW 22:52:05 10° NNE
Spot 4 4.2 22:45:18 42° ESE 22:46:25 52° ENE 22:51:06 10° N
SPOT 1/Viking Rocket 4.4 22:44:17 24° SSW 22:46:53 41° W 22:51:46 10° NNW
COSMOS 2487 2.3 22:47:21 87° WSW 22:47:24 88° WNW 22:51:00 10° NNE
Tiangong 2 3.4 22:44:46 10° WSW 22:45:37 17° WSW 22:45:37 17° WSW
Cosmos 1437 Rocket 4.5 22:44:49 10° NW 22:48:02 26° W 22:49:25 21° SW
Cosmos 1420 Rocket 4.5 22:43:10 10° N 22:48:19 49° ENE 22:49:47 38° ESE
Cosmos 1959 Rocket 4.5 22:44:28 10° N 22:50:53 88° E 22:53:30 39° S
SL-08 R/B 4.4 22:44:47 10° N 22:50:56 78° E 22:53:11 41° SSE
SL-16 R/B 4.3 22:50:53 10° N 22:54:31 17° NE 22:58:08 10° E
Cosmos 1697 Rocket 2.8 22:49:06 10° NNW 22:54:41 62° ENE 22:56:25 42° ESE
Cosmos 1953 4.2 22:52:10 10° NNE 22:55:11 20° ENE 22:55:13 20° ENE
IGS 5A 3.6 22:56:43 55° SSW 22:57:21 65° WSW 23:01:31 10° NNW
Cosmos 1452 Rocket 3.4 22:53:57 10° NNW 22:59:16 90° E 23:00:34 53° SSE
ISS -2.6 22:57:00 10° W 23:00:11 43° NNW 23:03:21 10° NE
Cosmos 2218 Rocket 4.0 22:54:04 10° N 23:00:14 79° W 23:02:38 40° S
DELTA 2 DEB (DPAF) 4.2 23:01:37 59° ESE 23:02:11 66° ENE 23:06:39 10° N
Iridium 2 4.2 23:02:00 10° N 23:05:19 47° ENE 23:05:19 47° ENE
Cosmos 1271 Rocket 3.4 23:02:09 10° N 23:05:37 43° ENE 23:05:37 43° ENE
Cosmos 2228 3.9 23:01:53 10° NNW 23:05:56 40° W 23:06:54 35° SW
deb Chang Zheng 4 3.9 23:06:09 10° N 23:10:25 62° WNW 23:11:26 46° SW
Cosmos 1602 Rocket 3.4 23:10:37 69° SW 23:11:06 80° W 23:15:27 10° N
Cosmos 921 Rocket 4.2 23:08:01 10° NW 23:12:03 33° W 23:12:53 31° WSW
Cosmos 1833 Rocket 2.6 23:11:23 42° SSW 23:13:25 90° WNW 23:19:05 10° NNE
Cosmos 1656 3.7 23:09:42 10° NNW 23:15:06 65° WSW 23:16:17 51° SSW
ATLAS CENTAUR R/B 4.0 23:16:25 10° NNE 23:17:19 11° NE 23:18:13 10° NE
Lacrosse 5 rocket 4.2 23:16:28 10° NNW 23:19:39 18° NNE 23:22:50 10° ENE
Meteor 1-21 4.1 23:19:44 55° SSE 23:20:59 78° E 23:26:44 10° NNE
CZ-4 R/B 4.3 23:19:58 10° N 23:24:56 61° WNW 23:26:31 41° SW
Cosmos 468 4.4 23:24:10 54° SSW 23:25:23 85° WNW 23:30:43 10° NNE
Cosmos 1766 3.5 23:21:35 10° NNW 23:25:11 66° WNW 23:25:11 66° WNW
USA 267 3.1 23:23:44 10° NE 23:30:17 75° SE 23:34:02 28° SW
Meteor 1-4 Rocket 4.1 23:27:27 10° NNW 23:30:20 29° W 23:30:20 29° W
Nadezhda 3 Rocket 4.0 23:29:12 52° SSE 23:30:50 74° E 23:37:12 10° NNE
Cosmos 1758 3.8 23:30:25 10° N 23:33:51 53° NE 23:33:51 53° NE
H-2A R/B 4.1 23:33:29 13° WSW 23:35:29 16° W 23:38:34 10° NW
Cosmos 1980 Rocket 2.1 23:35:50 10° NNW 23:41:33 87° ENE 23:42:26 65° SSE
Cosmos 1470 4.1 23:39:20 10° N 23:42:26 33° ENE 23:42:26 33° ENE
SeaSat 1 2.5 23:46:39 61° ESE 23:47:15 68° ENE 23:52:10 10° NNW
SME Rocket 3.5 23:46:35 67° SSE 23:47:21 88° ENE 23:51:45 10° NNW
Cosmos 1821 Rocket 4.0 23:42:39 10° N 23:48:56 73° E 23:50:18 55° SE
Cosmos 2322 Rocket 3.2 23:44:35 10° NNW 23:49:56 39° ENE 23:51:42 32° E
